Terminal Aerodrome Forecast
Issued by NWS Louisville, KY

Home | Current Version | Previous Version | Text Only | Print | Product List | Glossary On
Versions: 1 2 3 4 5 6 7 8 9 10 11 12 13 14 15 16 17 18 19 20
000
FTUS43 KLMK 012300
TAFBWG
TAF
KBWG 012320Z 0200/0224 VRB04KT P6SM FEW250
     FM021400 18009KT P6SM FEW040 BKN250=

USA.gov is the U.S. government's official web portal to all federal, state and local government web resources and services.